Regional Weather Roundup
Issued by NWS Mobile, AL

Home | Current Version | Previous Version | Text Only | Print | Product List | Glossary On
Versions: 1 2 3 4 5 6 7 8 9 10 11 12 13 14 15 16 17 18 19 20 21 22 23 24 25 26 27 28 29 30 31 32 33 34 35 36 37 38 39 40 41 42 43 44 45 46 47 48 49 50
000
ASUS44 KMOB 261916
RWRMOB
REGIONAL WEATHER ROUNDUP
NATIONAL WEATHER SERVICE MOBILE AL
200 PM CDT THU MAR 26 2015

ALZ061>064-262000-
COASTAL ALABAMA


CITY           SKY/WX    TMP DP  RH WIND       PRES   REMARKS
MOBILE REG APT LGT RAIN  67  66  97 S8        29.88F FOG
BROOKLEY FIELD RAIN      68  66  93 CALM      29.88F
GULF SHORES    LGT RAIN  68  66  94 CALM      29.88F

$$

ALZ051>060-262000-
INTERIOR SOUTHWEST AND SOUTH CENTRAL ALABAMA


CITY           SKY/WX    TMP DP  RH WIND       PRES   REMARKS
ANDALUSIA/OPP  CLOUDY    72  66  83 S5        29.88F
EVERGREEN      CLOUDY    72  66  81 S8        29.88F
FLORALA        LGT RAIN  69  65  86 S7        29.91F
GREENVILLE     FAIR      73  61  65 SE6       29.87F

$$

FLZ001>006-262000-
WESTERN FLORIDA PANHANDLE


CITY           SKY/WX    TMP DP  RH WIND       PRES   REMARKS
CRESTVIEW      LGT RAIN  67  66  97 S7        29.91F
DESTIN         LGT RAIN  69  66  90 NW5       29.92S
DUKE FIELD     LGT RAIN  67  65  94 S9        29.91S
MARY ESTHER    LGT RAIN  68  62  80 VRB3      29.89F
MILTON         LGT RAIN  68  64  87 S8        29.88F
PENSACOLA      LGT RAIN  66  64  93 NW6       29.88F
NAS PENSACOLA  LGT RAIN  68  64  87 N5        29.87F
VALPARAISO     RAIN      68  66  92 CALM      29.92R FOG

$$

...MARINE OBSERVATIONS...

STATION/POSITION TIME  SKY/WX   TEMP    WIND        PRES    VSBY
                                AIR SEA DIR/SP/G
                 (UTC)          (F)     (DEG/KT/KT) (MB)    (MI)
PASCAGOULA       1800            67     230/  6/  8 1012.7F
PETIT BOIS ISL   1800            66     300/  9/ 14 1013.5R
E DAUPHIN ISLAND 1900            69     220/  4/  5 1011.1F
MIDDLE BAY LIGHT 1800                   200/ 14     1012.9R
USCG MOBILE BAY  1800            67 68  140/  8/ 13 1011.2F
STATE DOCKS      1800            67 64              1012.2S
MEAHER PARK      1900            67     160/  4     1011.5F
FORT MORGAN      1800            69     220/ 10/ 11 1012.2R
12 S ORANGE BCH  1850            69 68  310/  4/  4 1011.1S
WVE H/P(F/S)=  3/ 6

PENSACOLA BAY    1800            70 72  240/  7/ 10 1013.4F
64 S DAUPHIN ISL 1850            70 72  290/  6/  8 1012.2F
WVE H/P(F/S)=  2/ 6

115 SE PENSACOLA 1850            67 76   20/ 17/ 19 1013.9F
WVE H/P(F/S)=  4/ 6

MID GULF/42001   1850            79 80  200/ 19/ 23 1011.9F
WVE H/P(F/S)=  7/ 6

EAST GULF/42003  1850            78 76  190/ 12/ 14 1013.7F
WVE H/P(F/S)=  3/ 6


$$

...NEARBY LOCATIONS

CITY           SKY/WX    TMP DP  RH WIND       PRES   REMARKS
GULFPORT       CLOUDY    69  66  90 SE9       29.87F
BILOXI         CLOUDY    67  65  93 S5        29.86F
PASCAGOULA     LGT RAIN  66  65  96 W5        29.88F FOG
HATTIESBURG    CLOUDY    74  65  73 SW13      29.87F
LAUREL         CLOUDY    73  63  68 S8        29.86F
MERIDIAN       CLOUDY    73  62  68 VRB7      29.83F
MERIDIAN NAS   PTSUNNY   73  61  65 W7        29.83F
MONTGOMERY     CLOUDY    76  55  48 S6        29.87F
MAXWELL AFB    CLOUDY    75  58  54 S7        29.87S
TROY           CLOUDY    75  60  59 S7        29.90F
FORT RUCKER    RAIN      68  66  93 CALM      29.89F FOG
DALEVILLE      CLOUDY    70  62  74 SE6       29.91F
DOTHAN         CLOUDY    68  62  81 SE6       29.95F

$$

...OTHER SURROUNDING LOCATIONS...

CITY           SKY/WX    TMP DP  RH WIND       PRES   REMARKS
BIRMINGHAM     CLOUDY    75  55  49 SW9       29.86F
TUSCALOOSA     CLOUDY    76  57  51 W6        29.83F
COLUMBUS GA    CLOUDY    74  52  46 W6        29.88F
PANAMA CITY    NOT AVBL
TALLAHASSEE    TSTM      68  65  90 SW6       29.95F
BATON ROUGE    CLOUDY    71  66  84 CALM      29.86F
NEW ORLEANS    LGT RAIN  64  59  83 SW10      29.90F
SLIDELL        LGT RAIN  69  66  90 CALM      29.83F
JACKSON        CLOUDY    76  57  51 W8        29.84F
MCCOMB         CLOUDY    74  62  66 S7        29.85F

$$

...SURROUNDING MARINE OBSERVATIONS...

STATION/POSITION TIME  SKY/WX   TEMP    WIND        PRES    VSBY
                                AIR SEA DIR/SP/G
                 (UTC)          (F)     (DEG/KT/KT) (MB)    (MI)
WAVELAND         1800            70 70  240/  7/  9 1011.9F
PASCAGOULA RGN A 1800            67     180/ 11/ 16 1011.8F
PASCAGOULA PORT  1800               72                N/A
GRAND ISLE       1800            68 71  270/  7/ 10 1013.2R
SOUTHWEST PASS   1900            65     270/  7/  8 1012.6F
PILOT STATION E  1800            63 51  240/ 11/ 12 1013.6F
SHELL BEACH      1800            67 72  240/  9/ 12 1012.3F
PANAMA CITY      1800            67 69   80/  4/  7 1013.1F
APALACHICOLA     1800            67 69  260/  5/  8 1014.7R
TYNDALL TOWER C  1900            64     260/  8/  9 1013.6F
S APLCHCLA/42036 1850            74 72  180/ 14/ 16 1012.7F
WVE H/P(F/S)=  3/ 5


$$



USA.gov is the U.S. government's official web portal to all federal, state and local government web resources and services.